www.pogodaiklimat.ru

Погода и климат >> Архив погоды >> Россия >> Ямало-Ненецкий АО >> Питляр


ПОГОДА в Питляре

  • Прогноз погоды в Питляре
  • Монитор погоды в Питляре
  • Климат города

АРХИВ ПОГОДЫ в Питляре

Время (UTC), дата Ветер
(напр.,м/с)
 
Видим.   Явления Облачность Т
(С)
Тd
(С)
f
(%)
Тe
(С)
Тes
(С)
Комфортность P
(гПа)
Po
(гПа)
Тmin
(С)
Tmax
(С)
R
(мм)
R24
(мм)
S
(см)
21 15.10 ЮВ 5 20 км 10/0
[Ac As]
-0.8 -1.5 95 -7 -7 1010.4 1008.3
00 16.10 ЮВ 6-10
{11}
4000 м слабый снег 10/9 300 м
[Frnb As op]
-0.5 -0.6 99 -8 -8 1005.9 1003.8
03 16.10 Ю 7-11
{14}
4000 м слабый снег 10/10 300 м
[Frnb Ns]
-0.6 -0.7 99 -8 -8 1002.2 1000.2 -2.2 4 6
06 16.10 Ю 8-14
{16}
н/о н/о 0.0 -0.1 99 -8 -8 1000.1 998.0
09 16.10 Ю 7-10
{14}
50 км 10/4 300 м
[Frnb Ac lent Ci fib]
+0.7 +0.5 99 -6 -6 999.4 997.4
12 16.10 ЮЗ 6
{10}
н/о н/о +1.7 +0.9 94 -5 -5 999.4 997.4
15 16.10 ЮЗ 6-10
{11}
20 км 10/0
[Ac und]
+2.5 +0.4 86 -3 -3 998.3 996.3 +2.6 2
18 16.10 ЮЗ 9-13
{14}
20 км 10/0
[Ac As]
+3.3 +0.8 84 -3 -3 996.4 994.4
21 16.10 ЮЗ 5
{14}
20 км 10/0
[Ac lent Ci fib]
+2.1 +0.7 90 -4 -4 995.2 993.2
00 17.10 ЮЗ 5
{13}
20 км 10/3
[Frnb Ac lent Ci fib]
+2.0 +0.5 90 -4 -4 994.2 992.2
03 17.10 ЮЗ 6
{11}
50 км 10/1 600 м
[Cu hum Ac lent Ci fib]
+1.8 +0.5 91 -4 -4 993.8 991.8 +1.1 5
06 17.10 З 7-11
{11}
н/о н/о +2.3 -1.2 78 -4 -4 994.9 992.9
09 17.10 З 7
{11}
50 км 3/3 600 м
[Cu hum]
+2.6 -2.1 71 -3 -3 996.8 994.8
12 17.10 З 6 н/о н/о +1.5 -2.0 78 -5 -5 999.2 997.1
15 17.10 СЗ 7 20 км 10/0
[As op]
+0.8 -2.0 82 -6 -6 1001.9 999.8 +2.9
18 17.10 СЗ 3 20 км 10/0
[Ac und]
+0.6 -1.9 83 -4 -4 1004.8 1002.7
21 17.10 СЗ 3 20 км {снег} 10/0
[As op]
+0.2 -2.2 84 -4 -4 1007.3 1005.3
00 18.10 С 3 20 км {снег} 10/0
[As trans]
-0.4 -5.6 68 -5 -5 1010.2 1008.1
03 18.10 СЗ 4 50 км 10/0
[Ac und]
-0.8 -4.0 79 -6 -6 1011.6 1009.5 -1.3 0.0 4
06 18.10 СЗ 2 н/о н/о +0.1 -3.6 76 -3 -3 1012.7 1010.6
09 18.10 З 3 50 км 9/9 600 м
[Sc]
+0.6 -3.1 76 -4 -4 1012.7 1010.6
12 18.10 ЮЗ 3 н/о н/о +0.1 -3.4 77 -4 -4 1012.3 1010.2
15 18.10 Ю 2 20 км 10/10 600 м
[Sc]
-0.3 -2.8 83 -4 -4 1012.1 1010.0 +0.8
18 18.10 В 1 20 км 10/10 600 м
[Sc]
-0.6 -3.3 82 -3 -3 1010.7 1008.6
21 18.10 Ю 2 20 км 10/0
[Ac As]
-0.5 -3.3 81 -4 -4 1009.7 1007.6
00 19.10 Ю 1 20 км 10/0
[As op]
-0.8 -4.9 74 -3 -3 1009.3 1007.2
03 19.10 В 1 50 км 10/10 600 м
[Sc]
-2.3 -4.9 82 -4 -4 1009.0 1006.9 -2.3 4
06 19.10 ЮЗ 2 н/о н/о -1.0 -4.5 77 -5 -5 1008.7 1006.7 -2.4
09 19.10 В 2 50 км 10/0
[Ac As]
-0.8 -5.5 70 -4 -4 1008.3 1006.2
12 19.10 В 2 н/о н/о -1.3 -5.2 75 -5 -5 1007.8 1005.7
15 19.10 В 2 20 км 10/10 600 м
[Sc]
-1.9 -6.7 70 -6 -6 1007.3 1005.2 -0.6
18 19.10 В 2 20 км 10/10 600 м
[Sc]
-2.3 -6.8 71 -6 -6 1006.2 1004.1
21 19.10 В 2 4000 м слабый снег 10/0
[As op]
-2.9 -6.1 79 -7 -7 1005.6 1003.5
00 20.10 СВ 4 4000 м слабый снег 10/9 300 м
[Frnb As op]
-2.7 -5.3 82 -9 -9 1004.6 1002.5
03 20.10 СВ 3 20 км {снег} 10/8 300 м
[Frnb As op]
-2.8 -5.7 80 -8 -8 1005.3 1003.2 -3.2 0.2 4
06 20.10 СВ 4 н/о н/о -1.9 -7.0 68 -7 -7 1005.8 1003.8
09 20.10 СВ 5 50 км 10/8 600 м
[Cu med, cong Ac lent Ci sp]
-1.5 -6.7 68 -8 -8 1006.8 1004.7
12 20.10 С 4 н/о н/о -2.8 -6.1 78 -9 -9 1008.1 1006.0
15 20.10 С 3 20 км 10/0
[Ac lent Ci fib]
-4.1 -6.5 83 -9 -9 1009.7 1007.5 -1.1
18 20.10 С 2 20 км 10/0
[Ci sp]
-4.2 -7.2 80 -8 -8 1010.6 1008.5
21 20.10 С 3 20 км 10/0
[Ci sp]
-4.8 -6.9 85 -10 -10 1010.9 1008.8
00 21.10 СЗ 4 20 км 10/0
[As op]
-2.1 -3.8 88 -8 -8 1010.7 1008.6
03 21.10 С 3 20 км слабый снег 10/9 300 м
[Frnb As op]
-1.7 -2.3 96 -7 -7 1011.6 1009.5 -5.4 0.0 4
06 21.10 С 2 н/о н/о -1.3 -4.2 81 -5 -5 1012.7 1010.6
09 21.10 С 2 50 км 10/0
[As op]
-0.7 -5.4 70 -4 -4 1013.8 1011.7
12 21.10 СЗ 2 н/о н/о -1.3 -4.6 78 -5 -5 1014.6 1012.5
15 21.10 СЗ 2 н/о н/о -1.3 -4.6 78 -5 -5 1014.6 1012.5
18 21.10 СЗ 4 20 км 10/0
[Ac und]
-0.5 -3.6 80 -6 -6 1014.4 1012.3
21 21.10 З 4 20 км 10/0
[Ac lent Ci sp]
-1.3 -3.9 82 -7 -7 1014.1 1012.0
00 22.10 З 4 20 км 10/0
[Ac lent]
-2.1 -5.6 77 -8 -8 1013.4 1011.2
03 22.10 Ю 1 50 км 10/3 300 м
[Cb cap Ac trans Ci fib]
-3.4 -5.9 83 -6 -6 1012.4 1010.2 -4.2 4
06 22.10 ЮВ 2 н/о н/о -1.7 -4.6 81 -6 -6 1010.3 1008.2 -4.7
09 22.10 ЮВ 3 50 км 10/0
[Ac trans Ci fib]
-0.3 -5.6 67 -5 -4 1007.3 1005.3
12 22.10 Ю 3 н/о н/о -2.0 -5.5 77 -7 -7 1004.8 1002.7
15 22.10 ЮВ 3 4000 м слабый снег 10/0
[As op]
-3.7 -5.1 90 -9 -9 1002.1 1000.0 -0.1 0.3

 

Местоположение метеостанции Питляр (Ямало-Ненецкий АО, Россия): широта 65.83 долгота 65.93 высота над уровнем моря 17 м.

В архиве по умолчанию представлена погода в Питляре за последнюю неделю. Архивные данные за месяц целиком и за предыдущие месяцы, начиная с января 2011 года, Вы можете получить, выбрав интересующий диапазон дат из раскрывающегося списка и нажав кнопку "Ввод!".


*Определитесь, кто Вы:
робот инопланетянин человек

Внимание! Время в таблицах - всемирное. Для получения местного времени необходимо прибавить поправку, которая в Питляре равна 5 ч.

Смотрите также архив погоды в соседних городах и на ближайших метеорологических станциях:

Погода в Мужах (Ямало-Ненецкий АО, Россия) (75 км)
Погода в Салехарде (Ямало-Ненецкий АО, Россия) (85 км)
Погода в Харпе (Ямало-Ненецкий АО, Россия) (108 км)
Погода в Полуе (Ямало-Ненецкий АО, Россия) (127 км)
Погода в Белоярске (Ямало-Ненецкий АО, Россия) (152 км)
Погода в Елецкой (Коми, Россия) (159 км)
Погода в Воркуте (Коми, Россия) (203 км)
Погода в Березово (Ханты-Мансийский АО, Россия) (217 км)
Погода в Петруни (Коми, Россия) (242 км)
Погода на Казым-Мысе (Ханты-Мансийский АО, Россия) (243 км)

Пояснения к столбцам:

Ветер - указаны скорость ветра в м/с - средняя за 10 мин, порывы в срок и между сроками (в фигурных скобках) и направление, откуда дует ветер: С - северный, СВ - северо-восточный, В - восточный, ЮВ - юго-восточный, Ю - южный, ЮЗ - юго-западный, З - западный, СЗ - северо-западный.
Видимость - горизонтальная дальность видимости в метрах или километрах. При видимости от 1 до 10 км при отсутствии осадков обычно наблюдается дымка, при ухудшении видимости до 1 км и менее - туман. В сухую погоду видимость может ухудшаться дымом, пылью или мглою.
Явления - указаны атмосферные явления, наблюдавшиеся в срок или в последний час перед сроком; фигурными скобками обозначены явления, наблюдавшиеся между сроками (за 1-3 часа до срока); квадратными скобками обозначены град или гололедные отложения с указанием их диаметра в мм.
Облачность - указаны через наклонную черту общая и нижняя облачность в баллах и высота нижней границы облаков в метрах; квадратными скобками обозначены формы облаков: Ci - перистые, Cs - перисто-слоистые, Cc - перисто-кучевые, Ac - высококучевые, As - высокослоистые, Sc - слоисто-кучевые, Ns - слоисто-дождевые, Cu - кучевые, Cb - кучево-дождевые. Подробнее классификацию облаков см. в Атласе облаков (PDF).
T - Температура воздуха - температура, измеренная на высоте 2 м над землей.
Td - Температура точки росы - температура, при понижении до которой содержащийся в воздухе водяной пар достигнет насыщения.
f - Относительная влажность воздуха - влажноcть воздуха, измеренная на высоте 2 м над землей.
Te - Эффективная температура - температура, которую ощущает одетый по сезону человек в тени. Характеристика душности погоды. При расчете учитывается влияние влажности воздуха и скорости ветра на теплоощущения человека.
Tes - Эффективная температура на солнце - температура, которую ощущает человек, с поправкой на солнечный нагрев. Характеристика знойности погоды. Зависит от высоты солнца над горизонтом, облачности и скорости ветра. Ночью, в пасмурную погоду, а также при ветре 12 м/с и более поправка равна нулю.
P - Атмосферное давление - приведенное к уровню моря атмосферное давление.
Po - Атмосферное давление - измеренное на уровне метеостанции атмосферное давление.
Tmin - Минимальная температура - минимум температуры воздуха на высоте 2 м над землей.
Tmax - Максимальная температура - максимум температуры воздуха на высоте 2 м над землей.
R - Количество осадков - Количество выпавших осадков за период времени, мм. При наведении курсора мыши на число - период времени, за который выпало указанное количество осадков.
R24 - Количество осадков - Количество выпавших осадков за 24 часа, мм.
S - Снежный покров - Высота снежного покрова, см. При наведении курсора мыши на число - состояние снежного покрова и степень покрытия местности в баллах.